Total_Precipitation_Accumulation
0.28 0.33 0.42 0.55 0.49 0.35 0.15 0.05 0.01 0.02 0.04 0.04 0.05 0.05 0.06 0.09 0.13 0.17 0.13 0.14 0.13 0.14 0.20 0.34 0.50 0.51 0.48 0.43 0.38 0.35 0.34 0.34 0.34 0.37 0.38 0.36 0.33 0.35 0.43 0.45 0.44 0.45 0.47 0.56 0.63 0.60 0.56 0.51 0.35
0.32 0.47 0.67 0.76 0.52 0.32 0.16 0.05 0.02 0.02 0.04 0.04 0.05 0.06 0.09 0.12 0.14 0.13 0.15 0.20 0.23 0.21 0.24 0.35 0.51 0.55 0.52 0.46 0.39 0.38 0.40 0.40 0.44 0.45 0.46 0.47 0.43 0.42 0.45 0.49 0.46 0.43 0.43 0.48 0.49 0.40 0.35 0.32 0.23
0.52 0.73 0.92 0.84 0.58 0.31 0.16 0.06 0.03 0.03 0.04 0.05 0.06 0.10 0.17 0.18 0.18 0.18 0.19 0.25 0.33 0.34 0.32 0.43 0.58 0.63 0.62 0.54 0.46 0.43 0.45 0.47 0.48 0.52 0.57 0.60 0.60 0.57 0.52 0.49 0.45 0.41 0.36 0.32 0.27 0.24 0.23 0.21 0.18
0.83 1.09 1.12 0.89 0.52 0.24 0.12 0.10 0.06 0.06 0.05 0.05 0.08 0.14 0.20 0.20 0.23 0.25 0.27 0.34 0.36 0.45 0.47 0.58 0.71 0.78 0.78 0.66 0.57 0.54 0.54 0.55 0.56 0.57 0.61 0.69 0.75 0.73 0.62 0.50 0.38 0.33 0.28 0.23 0.21 0.19 0.19 0.16 0.14
1.14 1.27 1.16 0.83 0.40 0.19 0.10 0.10 0.09 0.08 0.08 0.09 0.11 0.16 0.26 0.25 0.31 0.42 0.40 0.42 0.42 0.47 0.56 0.69 0.83 0.88 0.88 0.81 0.73 0.71 0.69 0.68 0.67 0.64 0.67 0.72 0.74 0.69 0.63 0.45 0.33 0.28 0.26 0.24 0.21 0.19 0.19 0.17 0.14
1.33 1.39 1.11 0.68 0.32 0.16 0.10 0.10 0.13 0.13 0.12 0.15 0.19 0.26 0.36 0.40 0.48 0.58 0.61 0.56 0.48 0.49 0.64 0.78 0.97 0.97 0.93 0.87 0.83 0.82 0.83 0.82 0.80 0.78 0.76 0.77 0.76 0.69 0.59 0.47 0.38 0.30 0.28 0.28 0.26 0.22 0.20 0.20 0.18
1.29 1.26 0.91 0.50 0.28 0.19 0.13 0.13 0.17 0.18 0.17 0.19 0.23 0.33 0.49 0.62 0.76 0.78 0.83 0.83 0.74 0.68 0.79 0.91 1.06 1.09 1.07 0.98 0.90 0.87 0.88 0.90 0.90 0.89 0.83 0.74 0.68 0.66 0.59 0.50 0.42 0.35 0.31 0.30 0.28 0.26 0.23 0.22 0.22
1.27 1.42 0.86 0.50 0.32 0.24 0.16 0.15 0.18 0.23 0.24 0.21 0.28 0.38 0.53 0.73 0.97 1.08 1.15 1.22 1.13 1.03 1.05 1.12 1.19 1.16 1.11 1.04 0.98 0.96 0.93 0.95 0.99 0.95 0.82 0.71 0.64 0.61 0.58 0.48 0.42 0.36 0.32 0.31 0.28 0.26 0.24 0.23 0.21
1.20 1.56 0.95 0.48 0.40 0.29 0.24 0.22 0.23 0.27 0.33 0.29 0.31 0.40 0.57 0.82 1.19 1.40 1.57 1.62 1.55 1.43 1.35 1.35 1.37 1.34 1.27 1.16 1.07 1.06 1.00 0.97 0.99 0.96 0.81 0.72 0.70 0.65 0.56 0.43 0.35 0.34 0.33 0.30 0.30 0.28 0.25 0.22 0.18
1.18 1.29 0.85 0.51 0.45 0.41 0.39 0.36 0.37 0.42 0.47 0.44 0.41 0.55 0.79 1.16 1.55 1.72 1.65 1.68 1.69 1.64 1.55 1.47 1.44 1.40 1.39 1.30 1.19 1.19 1.07 0.98 0.96 0.87 0.83 0.79 0.73 0.65 0.54 0.47 0.40 0.34 0.32 0.32 0.34 0.33 0.30 0.23 0.16
0.86 0.77 0.66 0.58 0.51 0.51 0.52 0.49 0.44 0.51 0.50 0.48 0.41 0.56 0.89 1.38 1.78 2.05 2.12 1.90 1.88 1.83 1.77 1.68 1.60 1.54 1.44 1.46 1.30 1.23 1.16 1.05 0.99 0.88 0.87 0.86 0.84 0.76 0.70 0.62 0.60 0.51 0.40 0.39 0.37 0.38 0.28 0.20 0.15
0.65 0.53 0.60 0.68 0.60 0.58 0.58 0.58 0.53 0.55 0.52 0.49 0.49 0.57 0.86 1.30 1.76 2.06 2.35 2.24 2.23 2.12 1.95 1.90 1.77 1.73 1.59 1.49 1.42 1.34 1.25 1.14 1.01 0.88 0.86 0.89 0.84 0.77 0.69 0.59 0.58 0.58 0.45 0.42 0.39 0.33 0.26 0.21 0.17
0.56 0.55 0.58 0.68 0.67 0.60 0.59 0.60 0.61 0.59 0.59 0.59 0.64 0.78 0.96 1.31 1.80 2.15 2.56 2.66 2.57 2.43 2.25 2.13 1.92 1.81 1.73 1.58 1.45 1.42 1.39 1.28 1.13 1.06 0.96 0.91 0.83 0.70 0.64 0.58 0.58 0.57 0.49 0.42 0.40 0.32 0.29 0.26 0.22
0.47 0.56 0.63 0.70 0.72 0.63 0.63 0.58 0.61 0.62 0.65 0.72 0.74 0.85 1.03 1.37 1.77 2.17 2.58 2.79 2.60 2.63 2.60 2.43 2.17 1.98 1.88 1.70 1.49 1.41 1.45 1.43 1.37 1.22 1.04 1.04 0.96 0.84 0.72 0.64 0.61 0.57 0.53 0.48 0.44 0.37 0.35 0.32 0.28
0.52 0.65 0.71 0.71 0.70 0.67 0.70 0.72 0.62 0.58 0.69 0.78 0.78 0.88 0.99 1.27 1.70 2.05 2.33 2.54 2.57 2.56 2.74 2.69 2.46 2.30 2.11 1.95 1.73 1.51 1.53 1.54 1.49 1.35 1.17 1.13 1.14 1.06 0.93 0.79 0.68 0.58 0.55 0.55 0.56 0.53 0.47 0.40 0.35
0.81 0.88 0.83 0.64 0.66 0.65 0.79 0.81 0.59 0.58 0.68 0.78 0.83 0.88 0.96 1.10 1.52 1.94 2.17 2.39 2.59 2.56 2.63 2.76 2.68 2.57 2.43 2.26 2.03 1.73 1.62 1.60 1.53 1.40 1.27 1.17 1.16 1.15 1.10 0.96 0.81 0.71 0.68 0.65 0.63 0.61 0.57 0.48 0.42
1.12 0.92 0.63 0.57 0.60 0.65 0.71 0.76 0.60 0.55 0.66 0.75 0.82 0.85 0.90 0.98 1.26 1.73 2.04 2.21 2.49 2.54 2.59 2.71 2.75 2.75 2.78 2.69 2.51 2.16 1.86 1.79 1.72 1.56 1.36 1.26 1.22 1.20 1.17 1.08 0.96 0.90 0.84 0.72 0.66 0.64 0.59 0.56 0.52
0.78 0.58 0.47 0.53 0.55 0.55 0.58 0.66 0.65 0.63 0.68 0.71 0.80 0.88 0.89 0.92 1.03 1.38 1.86 2.05 2.50 2.73 2.79 2.77 2.85 3.01 3.12 3.21 3.04 2.78 2.34 2.05 1.89 1.72 1.55 1.40 1.32 1.28 1.25 1.21 1.15 1.07 1.05 0.95 0.81 0.72 0.67 0.62 0.57
0.58 0.51 0.44 0.44 0.44 0.52 0.54 0.63 0.69 0.68 0.65 0.70 0.80 0.87 0.89 0.89 0.97 1.26 1.68 1.95 2.36 2.80 2.93 2.94 2.87 3.02 3.29 3.21 2.99 2.74 2.45 2.25 2.03 1.89 1.74 1.60 1.49 1.40 1.32 1.22 1.25 1.25 1.18 1.11 1.03 0.98 0.91 0.83 0.79
0.70 0.64 0.52 0.48 0.45 0.56 0.56 0.59 0.59 0.62 0.60 0.62 0.70 0.77 0.79 0.74 0.84 1.12 1.44 1.76 2.00 2.58 2.88 2.88 2.95 3.08 3.26 3.18 3.07 2.99 2.84 2.62 2.39 2.21 1.92 1.72 1.58 1.48 1.44 1.33 1.22 1.26 1.28 1.20 1.15 1.13 1.12 1.07 1.05
0.77 0.66 0.53 0.54 0.61 0.59 0.55 0.60 0.50 0.50 0.52 0.53 0.65 0.72 0.71 0.68 0.76 0.95 1.19 1.49 1.65 2.04 2.47 2.64 2.68 2.88 3.04 3.24 3.53 3.53 3.35 2.95 2.48 2.19 2.03 1.87 1.81 1.70 1.57 1.55 1.46 1.33 1.34 1.28 1.17 1.07 1.06 1.08 1.10
0.77 0.53 0.53 0.56 0.70 0.71 0.56 0.73 0.50 0.44 0.48 0.50 0.61 0.69 0.69 0.67 0.72 0.89 1.06 1.20 1.40 1.63 2.01 2.36 2.55 2.67 2.73 2.85 3.17 3.32 3.19 2.80 2.41 2.16 2.12 2.14 2.05 1.99 1.90 1.78 1.71 1.58 1.47 1.41 1.36 1.28 1.16 1.13 1.11
0.70 0.49 0.59 0.65 0.74 0.75 0.51 0.62 0.53 0.43 0.50 0.53 0.60 0.68 0.70 0.72 0.79 0.88 0.96 0.99 1.12 1.36 1.73 2.06 2.29 2.51 2.54 2.50 2.65 2.92 3.07 2.98 2.79 2.53 2.35 2.26 2.18 2.06 2.00 1.94 1.87 1.75 1.64 1.59 1.58 1.50 1.41 1.34 1.24
0.76 0.79 0.92 1.00 1.21 1.17 0.50 0.51 0.49 0.47 0.57 0.56 0.56 0.67 0.74 0.80 0.84 0.87 0.91 0.92 0.99 1.14 1.39 1.68 1.93 2.25 2.43 2.39 2.47 2.58 2.67 2.82 2.79 2.53 2.45 2.34 2.33 2.22 2.05 1.96 1.92 1.87 1.81 1.74 1.72 1.71 1.62 1.51 1.42
1.18 1.59 1.99 1.94 1.71 0.99 0.30 0.35 0.50 0.44 0.49 0.52 0.56 0.64 0.70 0.72 0.74 0.74 0.75 0.78 0.90 1.02 1.15 1.37 1.50 1.76 2.05 2.19 2.25 2.31 2.40 2.48 2.59 2.54 2.45 2.40 2.27 2.18 2.11 2.00 1.96 1.94 1.84 1.80 1.78 1.74 1.66 1.60 1.53
1.18 1.41 1.56 1.34 0.88 0.46 0.25 0.38 0.48 0.40 0.41 0.46 0.50 0.58 0.69 0.74 0.74 0.73 0.71 0.77 0.90 0.96 1.03 1.17 1.29 1.42 1.67 1.89 1.94 1.99 2.13 2.21 2.21 2.29 2.26 2.23 2.17 2.10 2.11 2.09 1.97 1.94 1.89 1.79 1.75 1.70 1.60 1.56 1.52
1.14 1.06 0.84 1.05 0.76 0.53 0.37 0.32 0.36 0.35 0.38 0.42 0.44 0.49 0.61 0.67 0.67 0.71 0.74 0.79 0.85 0.90 0.95 1.04 1.14 1.18 1.32 1.56 1.69 1.77 1.82 1.84 1.79 1.80 1.82 1.86 1.91 1.93 1.94 1.96 1.86 1.79 1.76 1.73 1.69 1.63 1.55 1.49 1.43
1.01 0.88 0.96 1.28 1.08 0.76 0.40 0.31 0.44 0.44 0.43 0.43 0.44 0.46 0.55 0.62 0.67 0.71 0.74 0.72 0.74 0.79 0.85 0.94 0.97 0.97 1.04 1.19 1.32 1.48 1.57 1.55 1.58 1.57 1.52 1.51 1.51 1.57 1.64 1.68 1.68 1.61 1.58 1.57 1.55 1.50 1.46 1.45 1.36
0.79 0.91 1.01 1.04 0.86 0.88 0.58 0.42 0.42 0.43 0.44 0.46 0.50 0.50 0.56 0.60 0.69 0.75 0.78 0.74 0.71 0.76 0.81 0.85 0.83 0.85 0.88 0.97 1.04 1.13 1.26 1.33 1.36 1.36 1.26 1.27 1.24 1.22 1.28 1.29 1.32 1.35 1.36 1.37 1.36 1.34 1.34 1.34 1.30
0.60 0.63 0.79 1.08 0.83 0.68 0.64 0.44 0.31 0.35 0.38 0.43 0.51 0.51 0.52 0.55 0.62 0.69 0.74 0.72 0.71 0.75 0.79 0.84 0.78 0.78 0.80 0.86 0.88 0.92 1.01 1.14 1.18 1.21 1.15 1.08 1.09 1.04 1.05 1.06 1.05 1.05 1.07 1.11 1.13 1.11 1.13 1.17 1.16